TimeCDT,TemperatureF,Dew PointF,Humidity,Sea Level PressureIn,VisibilityMPH,Wind Direction,Wind SpeedMPH,Gust SpeedMPH,PrecipitationIn,Events,Conditions,WindDirDegrees,DateUTC
12:13 AM,57.2,53.6,88,30.02,10.0,East,6.9,-,N/A,Rain,Rain,80,2013-05-09 05:13:00
12:33 AM,57.2,53.6,88,30.02,10.0,ENE,6.9,-,N/A,Rain,Light Rain,70,2013-05-09 05:33:00
1:13 AM,55.4,53.6,94,30.02,10.0,NNE,5.8,-,N/A,,Light Drizzle,30,2013-05-09 06:13:00
1:34 AM,55.4,53.6,94,30.01,10.0,NE,3.5,-,0.01,Rain,Light Rain,40,2013-05-09 06:34:00
1:53 AM,55.4,53.6,94,30.01,7.0,North,4.6,-,0.01,,Light Drizzle,360,2013-05-09 06:53:00
2:13 AM,55.4,53.6,94,30.01,10.0,NE,4.6,-,N/A,,Overcast,40,2013-05-09 07:13:00
2:33 AM,55.4,53.6,94,30.01,7.0,NE,4.6,-,N/A,,Overcast,40,2013-05-09 07:33:00
2:53 AM,55.4,51.8,88,30.01,7.0,North,3.5,-,N/A,,Overcast,10,2013-05-09 07:53:00
3:13 AM,55.4,51.8,88,30.01,7.0,NNW,3.5,-,N/A,,Overcast,340,2013-05-09 08:13:00
3:33 AM,55.4,51.8,88,30.01,7.0,NNW,4.6,-,N/A,,Overcast,340,2013-05-09 08:33:00
3:53 AM,55.4,51.8,88,30.00,7.0,NNW,8.1,-,N/A,,Overcast,340,2013-05-09 08:53:00
4:13 AM,55.4,51.8,88,30.01,7.0,North,8.1,-,N/A,,Overcast,360,2013-05-09 09:13:00
4:33 AM,55.4,51.8,88,30.01,7.0,North,8.1,-,N/A,,Overcast,350,2013-05-09 09:33:00
4:53 AM,55.4,51.8,88,30.01,7.0,North,8.1,-,N/A,,Overcast,360,2013-05-09 09:53:00
5:13 AM,55.4,51.8,88,30.01,7.0,North,9.2,-,N/A,,Light Drizzle,360,2013-05-09 10:13:00
5:33 AM,55.4,51.8,88,30.01,10.0,North,9.2,-,N/A,Rain,Light Rain,360,2013-05-09 10:33:00
5:53 AM,55.4,51.8,88,30.01,10.0,North,9.2,-,N/A,,Overcast,360,2013-05-09 10:53:00
6:13 AM,55.4,51.8,88,30.01,10.0,North,9.2,-,N/A,,Overcast,360,2013-05-09 11:13:00
6:33 AM,55.4,51.8,88,30.02,10.0,North,9.2,-,N/A,,Overcast,350,2013-05-09 11:33:00
6:53 AM,53.6,51.8,94,30.02,7.0,North,9.2,-,N/A,,Overcast,350,2013-05-09 11:53:00
7:13 AM,53.6,51.8,94,30.03,5.0,North,8.1,-,N/A,,Overcast,350,2013-05-09 12:13:00
7:33 AM,53.6,50.0,88,30.03,5.0,North,10.4,-,N/A,,Overcast,350,2013-05-09 12:33:00
7:53 AM,53.6,50.0,88,30.04,7.0,NNW,9.2,-,N/A,,Overcast,340,2013-05-09 12:53:00
8:13 AM,53.6,50.0,88,30.05,7.0,North,10.4,-,N/A,,Overcast,350,2013-05-09 13:13:00
8:34 AM,53.6,50.0,88,30.05,10.0,North,10.4,-,N/A,,Overcast,350,2013-05-09 13:34:00
8:53 AM,53.6,48.2,82,30.06,10.0,North,9.2,-,N/A,,Overcast,350,2013-05-09 13:53:00
9:13 AM,53.6,48.2,82,30.06,10.0,North,9.2,-,N/A,,Light Drizzle,350,2013-05-09 14:13:00
9:33 AM,53.6,48.2,82,30.06,10.0,North,13.8,-,N/A,,Overcast,350,2013-05-09 14:33:00
9:53 AM,53.6,48.2,82,30.06,10.0,NNW,11.5,-,N/A,Rain,Light Rain,340,2013-05-09 14:53:00
10:33 AM,53.6,46.4,77,30.07,10.0,NNW,10.4,-,N/A,,Mostly Cloudy,340,2013-05-09 15:33:00
10:53 AM,53.6,48.2,82,30.08,10.0,North,11.5,-,N/A,,Scattered Clouds,350,2013-05-09 15:53:00
11:33 AM,57.2,50.0,77,30.07,10.0,North,12.7,16.1,N/A,,Scattered Clouds,360,2013-05-09 16:33:00
11:53 AM,59.0,50.0,72,30.07,10.0,NNE,8.1,-,N/A,,Scattered Clouds,30,2013-05-09 16:53:00
12:13 PM,60.8,51.8,72,30.07,10.0,NE,9.2,-,N/A,,Scattered Clouds,40,2013-05-09 17:13:00
12:53 PM,64.4,51.8,64,30.05,10.0,NE,9.2,-,N/A,,Mostly Cloudy,50,2013-05-09 17:53:00
1:13 PM,64.4,51.8,64,30.05,10.0,ENE,6.9,-,N/A,,Mostly Cloudy,60,2013-05-09 18:13:00
1:33 PM,64.4,51.8,64,30.05,10.0,ENE,6.9,-,N/A,,Mostly Cloudy,60,2013-05-09 18:33:00
1:53 PM,66.2,51.8,60,30.05,10.0,East,6.9,-,N/A,,Mostly Cloudy,80,2013-05-09 18:53:00
2:13 PM,66.2,51.8,60,30.05,10.0,East,10.4,-,N/A,,Mostly Cloudy,80,2013-05-09 19:13:00
2:33 PM,64.4,51.8,64,30.05,10.0,NE,12.7,16.1,N/A,,Mostly Cloudy,50,2013-05-09 19:33:00
3:14 PM,62.6,53.6,72,30.05,10.0,East,12.7,-,N/A,,Mostly Cloudy,100,2013-05-09 20:14:00
3:33 PM,62.6,51.8,68,30.05,10.0,ENE,12.7,-,N/A,,Overcast,60,2013-05-09 20:33:00
3:53 PM,64.4,51.8,64,30.05,10.0,East,16.1,21.9,N/A,,Mostly Cloudy,80,2013-05-09 20:53:00
4:13 PM,64.4,51.8,64,30.05,10.0,East,15.0,-,N/A,,Mostly Cloudy,80,2013-05-09 21:13:00
4:33 PM,62.6,51.8,68,30.05,10.0,East,17.3,21.9,N/A,,Mostly Cloudy,90,2013-05-09 21:33:00
4:53 PM,62.6,50.0,63,30.05,10.0,East,15.0,-,N/A,,Mostly Cloudy,90,2013-05-09 21:53:00
5:13 PM,62.6,50.0,63,30.05,10.0,East,16.1,-,N/A,,Mostly Cloudy,80,2013-05-09 22:13:00
5:33 PM,62.6,50.0,63,30.05,10.0,East,13.8,-,N/A,,Mostly Cloudy,80,2013-05-09 22:33:00
5:54 PM,62.6,50.0,63,30.05,10.0,East,15.0,-,N/A,,Mostly Cloudy,80,2013-05-09 22:54:00
6:13 PM,62.6,48.2,59,30.05,10.0,East,18.4,-,N/A,,Mostly Cloudy,90,2013-05-09 23:13:00
6:33 PM,62.6,48.2,59,30.06,10.0,East,13.8,-,N/A,,Mostly Cloudy,80,2013-05-09 23:33:00
7:14 PM,60.8,46.4,59,30.07,10.0,East,13.8,-,N/A,,Overcast,80,2013-05-10 00:14:00
7:33 PM,57.2,44.6,63,30.08,10.0,East,15.0,20.7,N/A,,Overcast,90,2013-05-10 00:33:00
7:54 PM,55.4,44.6,67,30.09,10.0,East,16.1,-,N/A,,Overcast,90,2013-05-10 00:54:00
8:14 PM,55.4,44.6,67,30.09,10.0,East,13.8,-,N/A,,Overcast,90,2013-05-10 01:14:00
8:33 PM,55.4,42.8,63,30.10,10.0,East,15.0,-,N/A,,Overcast,80,2013-05-10 01:33:00
8:53 PM,55.4,42.8,63,30.11,10.0,East,16.1,-,N/A,,Overcast,90,2013-05-10 01:53:00
9:13 PM,53.6,42.8,67,30.12,10.0,East,12.7,-,N/A,,Overcast,90,2013-05-10 02:13:00
9:33 PM,53.6,42.8,67,30.13,10.0,East,16.1,-,N/A,,Overcast,80,2013-05-10 02:33:00
9:53 PM,53.6,42.8,67,30.14,10.0,East,17.3,21.9,N/A,,Overcast,80,2013-05-10 02:53:00
10:14 PM,51.8,39.2,62,30.15,10.0,East,13.8,-,N/A,,Overcast,80,2013-05-10 03:14:00
10:33 PM,51.8,39.2,62,30.15,10.0,East,12.7,-,N/A,,Overcast,80,2013-05-10 03:33:00
10:53 PM,51.8,39.2,62,30.15,10.0,East,10.4,-,N/A,,Overcast,80,2013-05-10 03:53:00
11:13 PM,51.8,39.2,62,30.14,10.0,East,9.2,-,N/A,,Overcast,90,2013-05-10 04:13:00
11:33 PM,50.0,37.4,62,30.15,10.0,East,10.4,-,N/A,,Overcast,80,2013-05-10 04:33:00